This demonstration page uses our WeatherBlox Daily Observations layout. Learn more.

Left ArrowRight Arrow

Hourly Observations for May 20, 2016

Temp ( °F °C ) Dew Point ( °F °C ) Humidity (%) Winds ( mph kmh ) Pressure ( in mb ) Visibility ( mi km ) Precip ( " mm )
12:51 am 00:51 Clear 64 17.8 45 7.2 50 50 SE 5 7 29.73 1007 10 16 0.00 0.00
1:51 am 01:51 Clear 61 16.1 43 6.1 52 52 ESE 5 7 29.73 1007 10 16 0.00 0.00
2:51 am 02:51 Clear 58 14.4 43 6.1 58 58 Calm 29.74 1007 10 16 0.00 0.00
3:51 am 03:51 Clear 60 15.6 40 4.4 47 47 SE 7 11 29.75 1007 10 16 0.00 0.00
4:51 am 04:51 Clear 56 13.3 41 5 57 57 SE 3 6 29.75 1008 10 16 0.00 0.00
5:51 am 05:51 Sunny 57 13.9 43 6.1 60 60 NNW 3 6 29.78 1008 10 16 0.00 0.00
6:51 am 06:51 Sunny 66 18.9 42 5.6 42 42 Calm 29.78 1009 10 16 0.00 0.00
7:51 am 07:51 Sunny 73 22.8 39 3.9 29 29 E 13 20 29.79 1009 10 16 0.00 0.00
8:51 am 08:51 Sunny 77 25 39 3.9 26 26 ESE 9 15 29.79 1009 10 16 0.00 0.00
9:51 am 09:51 Sunny 81 27.2 39 3.9 22 22 ESE 9 15 29.77 1008 10 16 0.00 0.00
10:51 am 10:51 Sunny 82 27.8 37 2.8 20 20 SW 6 9 29.76 1008 10 16 0.00 0.00
11:51 am 11:51 Sunny 86 30 33 0.6 15 15 VRB 5 7 29.74 1007 10 16 0.00 0.00
12:51 pm 12:51 Sunny 87 30.6 28 -2.2 12 12 S 9 15 29.71 1006 10 16 0.00 0.00
1:51 pm 13:51 Sunny 90 32.2 28 -2.2 11 11 S 14 22 29.70 1006 10 16 0.00 0.00
2:51 pm 14:51 Sunny 91 32.8 31 -0.6 12 12 SSW 14 22 29.67 1005 10 16 0.00 0.00
3:51 pm 15:51 Sunny 92 33.3 30 -1.1 11 11 SSW 15 24 29.64 1004 10 16 0.00 0.00
4:51 pm 16:51 Sunny 91 32.8 19 -7.2 7 7 WSW 14 22 29.64 1004 10 16 0.00 0.00
5:51 pm 17:51 Sunny 90 32.2 21 -6.1 8 8 S 10 17 29.64 1004 10 16 0.00 0.00
6:51 pm 18:51 Sunny 88 31.1 24 -4.4 10 10 S 9 15 29.64 1004 10 16 0.00 0.00
7:51 pm 19:51 Clear 80 26.7 27 -2.8 14 14 NW 5 7 29.66 1005 10 16 0.00 0.00
8:51 pm 20:51 Clear 81 27.2 18 -7.8 9 9 W 13 20 29.69 1005 10 16 0.00 0.00
9:51 pm 21:51 Clear 76 24.4 19 -7.2 12 12 N 5 7 29.73 1007 10 16 0.00 0.00
10:51 pm 22:51 Clear 70 21.1 21 -6.1 16 16 E 5 7 29.75 1008 10 16 0.00 0.00
11:51 pm 23:51 Clear 67 19.4 21 -6.1 17 17 ENE 6 9 29.76 1008 10 16 0.00 0.00

Powered by AerisWeather